Presidente Peron Airport
SAZN : now visible

Airfield :











YOU CAN JOIN US ON...

 
LOGIN :

Register | Disclaimer

   EN    FR    IT 

 









Legend :    VFR   Marginal VFR   IFR   Intensive IFR   Very Intensive IFR
Visi :
Ceiling :
>= 8 km
>= 3000ft
5 to 8 km
1000 to 3000 ft
1500m to 5 km
500 to 1000 ft
800 to 1500m
200 to 500 ft
< 800m
< 200 ft
Symbols :   Thunderstorms  Fog  Heavy snow  Heavy precipitations  Wind > 20 kt






- Airport Elevation : 895 ft
- IATA code : NQN


SAZN - Presidente Peron

CURRENT METAR :
  • 220000Z 00000KT 7000 NSC 15/04 Q1013

EXPIRED METARs :
  • 212200Z 00000KT CAVOK 21/04 Q1013

TAF TAF SAZN
Valid from the 22 at 00:00 until the 23 at 00:00 UTC


212300Z 2200/2224 VRB03KT CAVOK TX19/2219Z TN09/2210Z
BECMG 2202/2205 25015KT
TEMPO 2215/2221 23015G25KT
SAEF FIR / South America



MET'MAP, your aeronautical weather chart ! - Copyright ORBIFLY December 2007 - Disclaimer

ORBIFLY MET'MAP TEAM :

Programming & Development : Alexandra Zaïnal
Concept & original design : Baudouin d'Aumeries
Assistance for programming : Marc-Olivier Méhu
Technical & hardware support : Manuel Goepfert

Contact : metmap@orbifly.com




SOURCES & CREDITS :

   NOAA       Earth
Advisory